K5AGY Weather Reports


time (UTC)temp
C
wind
direction
speed
KPH
gust
KPH
rain 1hr
cm
rain 24hr
cm
rain mn
cm
humidity
%
barometer
mb
20260504120115 15 149 0.0 3.2 0.00 0.00 0.00 76 1014.7
20260504081524 16 135 3.2 9.7 0.00 0.00 0.00 71 1015.7
20260504070202 17 126 0.0 8.0 0.00 0.00 0.00 70 1016.8
20260504050008 17 115 1.6 9.7 0.00 0.00 0.00 67 1017.7
20260504044547 18 136 3.2 11.3 0.00 0.00 0.00 67 1017.9
20260504043024 18 123 1.6 9.7 0.00 0.00 0.00 65 1018.1
20260504041600 18 128 3.2 12.9 0.00 0.00 0.00 65 1018.1
20260504040038 18 120 3.2 11.3 0.00 0.00 0.00 64 1018.2
20260504034519 18 124 6.4 12.9 0.00 0.00 0.00 63 1018.1
20260504033054 18 123 6.4 16.1 0.00 0.00 0.00 61 1018.2
20260504031529 19 130 6.4 14.5 0.00 0.00 0.00 60 1018.0
20260504030059 19 122 4.8 11.3 0.00 0.00 0.00 59 1018.0
20260504024544 20 164 4.8 14.5 0.00 0.00 0.00 58 1017.9
20260504023011 20 132 4.8 11.3 0.00 0.00 0.00 57 1017.9
20260504021553 20 112 3.2 12.9 0.00 0.00 0.00 57 1017.5
20260504020023 20 117 4.8 12.9 0.00 0.00 0.00 56 1017.3
20260504014600 21 127 4.8 12.9 0.00 0.00 0.00 54 1017.2
20260504013045 21 138 6.4 16.1 0.00 0.00 0.00 51 1017.0
20260504011514 22 134 6.4 19.3 0.00 0.00 0.00 50 1016.8
20260504010048 22 149 6.4 12.9 0.00 0.00 0.00 46 1016.8
20260504004538 24 132 1.6 6.4 0.00 0.00 0.00 43 1016.9
20260504003102 25 160 3.2 9.7 0.00 0.00 0.00 41 1017.1
20260504001529 25 154 3.2 12.9 0.00 0.00 0.00 39 1017.1
20260504000004 26 155 3.2 14.5 0.00 0.00 0.00 36 1017.1
20260503234540 26 113 3.2 12.9 0.00 0.00 0.00 35 1017.2
20260503233010 26 115 8.0 20.9 0.00 0.00 0.00 33 1017.1
20260503231552 26 144 8.0 14.5 0.00 0.00 0.00 32 1017.2
20260503230016 26 133 6.4 14.5 0.00 0.00 0.00 33 1017.3
20260503224543 26 128 4.8 17.7 0.00 0.00 0.00 33 1017.5
20260503223013 26 157 6.4 14.5 0.00 0.00 0.00 33 1017.6
20260503221551 26 65 6.4 19.3 0.00 0.00 0.00 31 1017.8
20260503220018 26 115 6.4 16.1 0.00 0.00 0.00 31 1018.1
20260503214551 26 127 8.0 17.7 0.00 0.00 0.00 32 1018.2
20260503213018 26 132 3.2 19.3 0.00 0.00 0.00 31 1018.6
20260503211600 26 180 4.8 17.7 0.00 0.00 0.00 32 1018.7
20260503210020 26 122 8.0 17.7 0.00 0.00 0.00 34 1019.1
20260503204549 26 107 4.8 11.3 0.00 0.00 0.00 32 1019.5
20260503203021 26 106 8.0 14.5 0.00 0.00 0.00 31 1019.7
20260503201549 26 114 3.2 16.1 0.00 0.00 0.00 33 1020.0
20260503200021 26 144 8.0 16.1 0.00 0.00 0.00 32 1020.2
20260503194552 26 146 6.4 14.5 0.00 0.00 0.00 35 1020.4
20260503193034 26 139 4.8 14.5 0.00 0.00 0.00 36 1020.7
20260503191551 26 200 6.4 16.1 0.00 0.00 0.00 36 1020.9
20260503190030 26 165 8.0 16.1 0.00 0.00 0.00 38 1021.2
20260503184606 25 61 4.8 14.5 0.00 0.00 0.00 40 1021.4
20260503183030 25 98 8.0 14.5 0.00 0.00 0.00 38 1021.6
20260503181505 25 134 6.4 12.9 0.00 0.00 0.00 38 1021.9
20260503180035 25 143 6.4 14.5 0.00 0.00 0.00 39 1022.2
20260503174510 25 211 6.4 14.5 0.00 0.00 0.00 39 1022.5
20260503173046 25 221 1.6 11.3 0.00 0.00 0.00 38 1022.7
20260503171512 24 126 6.4 14.5 0.00 0.00 0.00 44 1022.9